Location: ??????????
(44.2167°N, 135.5333°E)
Time: 15:21:25
(UTC+00:00)

Meteor 1-22 Rocket - Pass Details

Date: 15 June 2025
Orbit: 788 x 936 km, 81.2° (Epoch: 15 July)

Event Time Altitude Azimuth Distance (km) Brightness Sun altitude
Rises 12:13:57 0° 350° (N) 3,308 8.5 -12.7°
Reaches altitude 10° 12:16:19 10° 352° (N) 2,384 7.5 -12.9°
Maximum altitude 12:21:41 77° 79° (E) 840 4.1 -13.5°
Enters shadow 12:25:49 18° 164° (SSE) 1,916 5.5 -14.0°
